Tracking 31027 objects as of 19-Jul-2025
HD Live streaming from Space Station
objects crossing your sky now

SHIYAN 27D

Track SHIYAN 27D now!
10-day predictions


NORAD ID: 63602
Int'l Code: 2025-078D
Perigee: 1,052.1 km
Apogee: 1,053.9 km
Inclination: 99.7 °
Period: 106.1 minutes
Semi major axis: 7423 km
RCS: Unknown
Launch date: April 18, 2025
Source: People's Republic of China (PRC)
Launch site: Taiyaun Space Center, China (TSC)
Your satellite tracking list
STARLINK-31879
Track 1 satellite(s)




NASA's NSSDC Master Catalog

Two Line Element Set (TLE):
1 63602U 25078D   25199.87109436  .00000001  00000-0  63952-4 0  9993
2 63602  99.6938 207.0164 0001177  88.7091 271.4182 13.57206844 12314
Source of the keplerian elements: AFSPC